[[{"header":{"parameterUnit":"m.s-1","parameterCategory":1,"la1":30.2991,"la2":30.254,"lo1":-89.0895,"lo2":-89.0444,"dy":0.0017,"dx":0.0017,"nx":28,"ny":28,"refTime":"2026-02-26T03:00:00:Z","depth":0,"parameterNumber":2,"parameterNumberName":"U-component_of_WINDS"},"data":[0,0,0,0,0,0,0,0,0,0,0,0,0,0,0,0,0,0,0,0,0,0,0,0,0,0,0,0,0,0,0,0,0,0,0,0,0,0,0,0,0,0,0,0,0,0,0,0,0,0,0,0,0,0,0,0,0,0,0.4679,0.468,0,0.4718,0.4718,0.4718,0.4684,0.4683,0.4681,0.468,0.4723,0.4725,0.4727,0,0,0,0,0,0,0,0,0,0,0,0,0,0.4579,0.4581,0.4679,0.468,0.468,0.4718,0.4718,0.4719,0.4684,0.4683,0.4681,0.4679,0.4722,0.4725,0.4728,0,0,0,0,0,0,0,0,0,0,0,0,0,0.4621,0.4582,0.4679,0.4668,0.4667,0.4717,0.4718,0.4719,0.4685,0.4683,0.4681,0.4679,0.4721,0.4724,0.4728,0.4793,0,0,0.4739,0.4741,0,0,0,0,0,0,0,0,0.4618,0.4624,0.4669,0.4669,0.4668,0.4694,0.4698,0.4744,0.4685,0.4678,0.468,0.4678,0.4715,0.4719,0.4731,0.4795,0.4797,0.4739,0.4742,0.4743,0.4744,0,0,0,0,0,0,0,0.4615,0.4623,0.4695,0.467,0.4669,0.4661,0.4665,0.4707,0.4708,0.4679,0.4676,0.4681,0.4714,0.4727,0.4732,0.4797,0.4739,0.4743,0.4745,0.4746,0.4916,0.4918,0,0,0,0,0,0,0.4613,0.462,0.4693,0.4696,0.4637,0.4665,0.4669,0.4688,0.4707,0.4708,0.4683,0.4679,0.4722,0.4727,0.4733,0.481,0.4743,0.4747,0.4749,0.4914,0.4917,0.4919,0,0,0,0,0,0,0.4611,0.462,0.4692,0.4657,0.4666,0.4669,0.469,0.469,0.4703,0.4711,0.4711,0.4696,0.4721,0.4728,0.4778,0.4811,0.4748,0.4752,0.4911,0.4915,0.4918,0.4966,0,0,0,0,0,0,0.4609,0.462,0.4644,0.4658,0.4668,0.4736,0.4692,0.4692,0.4709,0.4705,0.4723,0.4724,0.472,0.4773,0.4782,0.4815,0.4754,0.4908,0.4913,0.4917,0.4961,0.4971,0.4978,0,0,0,0,0,0.4605,0.4657,0.4645,0.4654,0.4698,0.4738,0.4743,0.4736,0.4712,0.4736,0.4741,0.4723,0.4806,0.4778,0.4788,0.4823,0.4906,0.4911,0.4916,0.4958,0.4969,0.4978,0,0,0,0,0,0,0.4648,0.4658,0.4646,0.4703,0.472,0.4732,0.4763,0.4748,0.4773,0.4768,0.4759,0.4764,0.4817,0.4825,0.4793,0.4887,0.4852,0.486,0.488,0.4891,0.4899,0.4897,0.4758,0,0,0,0,0,0.4663,0.4694,0.4702,0.4752,0.476,0.476,0.4777,0.477,0.4787,0.4794,0.4803,0.4821,0.4851,0.4871,0.4899,0.4962,0.4966,0.4991,0.4999,0.5006,0.5013,0.5047,0.5059,0.4936,0.4936,0.4936,0,0,0.4697,0.4706,0.4726,0.476,0.4772,0.4805,0.4766,0.4802,0.4827,0.48,0.4848,0.4855,0.4874,0.4931,0.4956,0.4939,0.5048,0.5013,0.5018,0.5022,0.5054,0.5066,0.5076,0.494,0.4939,0.4939,0,0,0.4775,0.4784,0.4827,0.4839,0.4857,0.4857,0.4867,0.4881,0.4884,0.4932,0.4912,0.4941,0.4993,0.5008,0.5022,0.5104,0.5089,0.5113,0.5159,0.5192,0.5202,0.521,0.524,0.5251,0.512,0.512,0.512,0,0.4814,0.4862,0.4851,0.4888,0.4904,0.488,0.4924,0.4936,0.4963,0.4975,0.4955,0.5019,0.503,0.509,0.511,0.5122,0.5134,0.5112,0.5201,0.5209,0.5217,0.5246,0.5257,0.5123,0.5123,0.5122,0.5122,0,0.491,0.4943,0.4975,0.5001,0.502,0.506,0.5057,0.5077,0.5068,0.507,0.5119,0.5131,0.5161,0.5175,0.5167,0.5234,0.5223,0.5202,0.5167,0.5232,0.5259,0.527,0.5127,0.5126,0.5125,0.5125,0,0,0.5017,0.5035,0.5047,0.5058,0.5076,0.5102,0.5141,0.5169,0.5187,0.5206,0.524,0.5283,0.5264,0.528,0.5273,0.5302,0.5367,0.5278,0.5279,0.5295,0.5443,0.5459,0.5472,0.5357,0.5359,0.536,0.5441,0,0.5096,0.5163,0.5155,0.522,0.5251,0.5227,0.5262,0.5277,0.5279,0.5306,0.5309,0.534,0.5312,0.5321,0.5349,0.5354,0.5397,0.5348,0.5389,0.539,0.5386,0.5486,0.5503,0.5579,0.5452,0.5453,0.5455,0,0.5197,0.5219,0.5287,0.5299,0.5312,0.5343,0.5368,0.5394,0.541,0.541,0.5427,0.5415,0.5455,0.5418,0.5473,0.544,0.5456,0.5461,0.5464,0.5468,0.5427,0.5494,0.5603,0.5615,0.5471,0.5469,0.5468,0,0.527,0.5316,0.5362,0.5372,0.5388,0.541,0.5418,0.5432,0.5449,0.5471,0.5483,0.5509,0.5524,0.5546,0.5541,0.5515,0.5598,0.5561,0.56,0.56,0.562,0.5619,0.5734,0.5628,0.5628,0.5628,0.5628,0,0.536,0.5402,0.5395,0.5424,0.5471,0.546,0.5508,0.5512,0.5525,0.5555,0.5536,0.5565,0.5557,0.5585,0.5582,0.5629,0.5636,0.5637,0.5636,0.5639,0.5639,0.5651,0.5646,0.5631,0.563,0.563,0.5629,0,0.5449,0.5446,0.5495,0.5505,0.5509,0.5543,0.5552,0.558,0.558,0.5618,0.5626,0.5627,0.5659,0.5656,0.5693,0.5691,0.5749,0.5741,0.5743,0.5742,0.5782,0.5778,0.5909,0.5926,0.5808,0.5809,0.581,0,0.5507,0.5539,0.5553,0.5571,0.558,0.5609,0.5627,0.5618,0.5637,0.5657,0.5682,0.5713,0.5737,0.5789,0.5794,0.5822,0.5815,0.5859,0.5819,0.5822,0.5817,0.5816,0.5819,0.5867,0.5869,0.587,0.5871,0,0.5611,0.5608,0.5633,0.5658,0.5679,0.5698,0.5716,0.5732,0.5724,0.5747,0.5779,0.5797,0.5834,0.5865,0.5891,0.59,0.5885,0.5883,0.5893,0.5898,0.5898,0.59,0.5766,0.588,0.5879,0.5878,0.5878,0.5878,0.5688,0.5715,0.5729,0.5758,0.5769,0.5786,0.5812,0.5815,0.5842,0.587,0.5863,0.59,0.5915,0.5949,0.596,0.5988,0.5973,0.5988,0.5992,0.5997,0.6002,0.5893,0.5993,0.5993,0.5993,0.5992,0.5992,0,0.5792,0.5799,0.5825,0.585,0.5873,0.5854,0.5873,0.5893,0.5926,0.5941,0.5964,0.6001,0.6031,0.6037,0.6065,0.6087,0.6081,0.6095,0.6094,0.6096,0.6014,0.6002,0.6099,0.6099,0.6099,0.6099,0.6099,0.6099,0.5848,0.5894,0.5892,0.5944,0.5951,0.5986,0.5998,0.6013,0.6025,0.6067,0.6091,0.6094,0.6106,0.6135,0.6161,0.6162,0.6174,0.6191,0.619,0.6113,0.6102,0.6092,0.6081,0.6193,0.6193,0.627,0.627,0.6271]},{"header":{"parameterUnit":"m.s-1","parameterCategory":1,"la1":30.2991,"la2":30.254,"lo1":-89.0895,"lo2":-89.0444,"dy":0.0017,"dx":0.0017,"nx":28,"ny":28,"refTime":"2026-02-26T03:00:00:Z","depth":0,"parameterNumber":3,"parameterNumberName":"V-component_of_WINDS"},"data":[0,0,0,0,0,0,0,0,0,0,0,0,0,0,0,0,0,0,0,0,0,0,0,0,0,0,0,0,0,0,0,0,0,0,0,0,0,0,0,0,0,0,0,0,0,0,0,0,0,0,0,0,0,0,0,0,0,0,2.2832,2.2833,0,2.29,2.2901,2.2902,2.2874,2.2873,2.2871,2.287,2.2939,2.2942,2.2945,0,0,0,0,0,0,0,0,0,0,0,0,0,2.2678,2.2681,2.2832,2.2833,2.2834,2.29,2.2901,2.2902,2.2875,2.2873,2.2871,2.2869,2.2938,2.2941,2.2945,0,0,0,0,0,0,0,0,0,0,0,0,0,2.2745,2.2682,2.2832,2.2828,2.2829,2.29,2.2901,2.2902,2.2875,2.2873,2.287,2.2868,2.2936,2.2941,2.2946,2.3025,0,0,2.2961,2.2963,0,0,0,0,0,0,0,0,2.2742,2.2751,2.2828,2.2829,2.2829,2.2876,2.2872,2.2943,2.2876,2.2857,2.2869,2.2867,2.292,2.2926,2.2944,2.3028,2.3031,2.2962,2.2965,2.2967,2.2968,0,0,0,0,0,0,0,2.2737,2.2748,2.2859,2.2829,2.283,2.2823,2.283,2.2885,2.2901,2.2859,2.2857,2.2865,2.292,2.2939,2.2945,2.3032,2.2962,2.2966,2.2969,2.2971,2.3184,2.3187,0,0,0,0,0,0,2.2732,2.2744,2.2857,2.2861,2.2779,2.2828,2.2835,2.2864,2.2901,2.2904,2.2867,2.2864,2.2932,2.294,2.2948,2.3043,2.2967,2.2972,2.2974,2.3182,2.3185,2.3188,0,0,0,0,0,0,2.2729,2.2743,2.2854,2.2802,2.2816,2.2833,2.2865,2.2866,2.2886,2.2907,2.291,2.2885,2.293,2.2941,2.3006,2.3045,2.2974,2.2978,2.3179,2.3183,2.3187,2.3234,0,0,0,0,0,0,2.2725,2.2742,2.2772,2.2803,2.2819,2.2912,2.2867,2.2869,2.2895,2.2891,2.2924,2.2927,2.2929,2.2999,2.3011,2.305,2.2982,2.3175,2.3181,2.3185,2.3229,2.3239,2.3247,0,0,0,0,0,2.2719,2.2783,2.2774,2.2788,2.2857,2.2914,2.2923,2.2924,2.2898,2.2929,2.2942,2.2926,2.3038,2.3006,2.3019,2.3061,2.3173,2.3179,2.3185,2.3225,2.3237,2.3247,0,0,0,0,0,0,2.2756,2.2787,2.2777,2.2852,2.2881,2.2909,2.2948,2.2937,2.2974,2.2969,2.2968,2.2976,2.3044,2.3059,2.3021,2.3139,2.3102,2.3111,2.3127,2.3139,2.3148,2.3143,2.2986,0,0,0,0,0,2.2772,2.2816,2.2841,2.2905,2.2919,2.2931,2.2956,2.2955,2.2984,2.2996,2.3014,2.3043,2.3085,2.3113,2.3152,2.323,2.3237,2.3266,2.3275,2.3282,2.329,2.3333,2.3346,2.3208,2.3208,2.3208,0,0,2.2807,2.283,2.2857,2.2912,2.2934,2.298,2.2942,2.2991,2.3025,2.3003,2.3066,2.3081,2.3113,2.3185,2.3218,2.32,2.333,2.329,2.3296,2.33,2.334,2.3353,2.3365,2.3212,2.3211,2.321,0,0,2.2894,2.2915,2.2971,2.2994,2.3027,2.3035,2.3048,2.3079,2.3087,2.3151,2.3136,2.3175,2.3247,2.3271,2.3292,2.3388,2.3374,2.34,2.3449,2.3491,2.3501,2.3511,2.3545,2.3558,2.3408,2.3408,2.3408,0,2.2933,2.3001,2.3001,2.3052,2.3077,2.3059,2.3116,2.3137,2.3182,2.32,2.3179,2.3268,2.3289,2.3366,2.339,2.3407,2.3423,2.3397,2.35,2.351,2.3519,2.3551,2.3564,2.3411,2.3411,2.3411,2.341,0,2.3048,2.3095,2.3136,2.318,2.3209,2.3262,2.327,2.3299,2.3295,2.3305,2.3369,2.3393,2.3437,2.3455,2.3451,2.3532,2.352,2.3499,2.3462,2.3535,2.3565,2.3578,2.3415,2.3414,2.3414,2.3413,0,0,2.316,2.3203,2.3218,2.3238,2.3274,2.331,2.3362,2.3405,2.3431,2.3462,2.3506,2.3567,2.3548,2.3572,2.3571,2.3607,2.3682,2.3582,2.3583,2.36,2.3772,2.3787,2.3802,2.3672,2.3675,2.3677,2.3769,0,2.325,2.3342,2.3344,2.3428,2.3472,2.3456,2.3501,2.3528,2.3538,2.3576,2.3587,2.363,2.3602,2.3617,2.3652,2.3665,2.3716,2.3658,2.3713,2.3715,2.3706,2.3818,2.3835,2.3921,2.3781,2.3783,2.3785,0,2.3368,2.3403,2.3492,2.3521,2.354,2.3581,2.362,2.3657,2.3687,2.3691,2.3718,2.3712,2.3764,2.3725,2.3797,2.3758,2.378,2.379,2.3794,2.3799,2.3755,2.3827,2.3948,2.3961,2.3803,2.3802,2.3801,0,2.3441,2.3511,2.3573,2.359,2.3626,2.3655,2.3671,2.3699,2.3725,2.3759,2.3776,2.3816,2.3838,2.3869,2.3873,2.3843,2.3946,2.3906,2.3951,2.3951,2.3974,2.3973,2.4101,2.3988,2.3988,2.3987,2.3987,0,2.3542,2.3597,2.3607,2.3645,2.3706,2.3707,2.3767,2.3781,2.3805,2.3846,2.3834,2.3872,2.3875,2.3914,2.3917,2.3977,2.3987,2.3992,2.3992,2.3993,2.3993,2.4009,2.4003,2.3991,2.399,2.3989,2.3989,0,2.3635,2.3643,2.371,2.3738,2.3747,2.3791,2.3815,2.3851,2.386,2.3911,2.3923,2.3937,2.3982,2.3989,2.4042,2.4044,2.4116,2.411,2.4106,2.4106,2.415,2.4146,2.4294,2.4313,2.4186,2.4188,2.4189,0,2.3699,2.3741,2.3774,2.38,2.3818,2.3861,2.3887,2.3889,2.3917,2.3953,2.3986,2.403,2.4065,2.4138,2.4153,2.4193,2.4188,2.4237,2.4194,2.4194,2.4189,2.4187,2.4191,2.4245,2.4247,2.4248,2.4249,0,2.3811,2.3814,2.3852,2.3893,2.3925,2.3957,2.3987,2.4009,2.4014,2.4046,2.4093,2.412,2.4174,2.4218,2.4258,2.4274,2.4263,2.4262,2.4275,2.4277,2.4273,2.4276,2.4129,2.4259,2.4258,2.4257,2.4256,2.4256,2.3892,2.3929,2.3958,2.4001,2.4024,2.4052,2.4088,2.4101,2.414,2.4185,2.4183,2.4234,2.4262,2.4315,2.4333,2.4373,2.4357,2.4375,2.438,2.4384,2.4389,2.4266,2.438,2.438,2.4379,2.4379,2.4379,0,2.4005,2.4023,2.4063,2.4105,2.4139,2.4125,2.4158,2.4187,2.4232,2.4259,2.4295,2.4348,2.439,2.4408,2.4449,2.4478,2.4473,2.4488,2.4487,2.4491,2.4401,2.4386,2.4491,2.4491,2.4491,2.4491,2.4491,2.4491,2.4067,2.4129,2.4135,2.4207,2.4224,2.4275,2.4294,2.432,2.4342,2.4402,2.4437,2.4448,2.4472,2.4515,2.4553,2.4557,2.4573,2.4591,2.4592,2.4508,2.4497,2.4486,2.4472,2.4594,2.4594,2.4679,2.468,2.468]}]]